Location: Unspecified
(0.0000°N, 0.0000°E)
Time: 01:41:59
(UTC+00:00)

NOSS 3-1 (A) - Pass Details

Date: 25 April 2019
Orbit: 778 x 1434 km, 63.4° (Epoch: 13 May)

Event Time Altitude Azimuth Distance (km) Brightness Sun altitude
Rises 02:54:23 0° 12° (NNE) 4,375 7.2 -44.4°
Reaches altitude 10° 02:58:52 10° 34° (NE) 3,480 6.8 -43.4°
Maximum altitude 03:03:28 15° 66° (ENE) 3,123 6.7 -42.3°
Drops below altitude 10° 03:08:06 10° 99° (E) 3,536 6.9 -41.2°
Sets 03:12:39 0° 119° (ESE) 4,486 7.4 -40.1°
